Regional Weather Roundup
Issued by NWS

Home | Current Version | Previous Version | Graphics & Text | Print | Product List | Glossary On
Versions: 1 2 3 4 5 6 7 8 9 10 11 12 13 14 15 16 17 18 19 20 21 22 23 24 25 26 27
000
ASUS45 KBOI 220610
RWRID

IDAHO REGIONAL WEATHER ROUNDUP
NATIONAL WEATHER SERVICE BOISE ID
1200 AM MDT TUE AUG 22 2017

NOTE: "FAIR" INDICATES FEW OR NO CLOUDS BELOW 12000 FEET
WITH NO SIGNIFICANT WEATHER AND/OR OBSTRUCTIONS TO VISIBILITY

IDZ012-014-220700-
SOUTHWEST IDAHO


CITY           SKY/WX    TMP DP  RH WIND       PRES   REMARKS
BOISE          CLEAR     70  41  34 SE6       30.05S
CALDWELL       CLEAR     62  49  62 E3        30.04R
MOUNTAIN HOME  CLEAR     66  37  35 NW3       30.06F
$$

IDZ016-017-220700-
SOUTHCENTRAL IDAHO


CITY           SKY/WX    TMP DP  RH WIND       PRES   REMARKS
BURLEY         CLEAR     53  45  74 S5        30.15R
JEROME         CLEAR     61  43  51 E7        30.15R
TWIN FALLS     CLEAR     61  37  41 S8        30.16R
$$

IDZ019>023-220700-
SOUTHEAST IDAHO


CITY           SKY/WX    TMP DP  RH WIND       PRES   REMARKS
IDAHO FALLS    CLEAR     53  43  68 NE3       30.20S
POCATELLO      CLEAR     59  35  40 E5        30.19R
REXBURG        CLEAR     55  40  56 NE3       30.21R
$$

IDZ006-010-011-018-031-032-220700-
CENTRAL IDAHO MOUNTAINS


CITY           SKY/WX    TMP DP  RH WIND       PRES   REMARKS
MCCALL         CLEAR     59  39  47 CALM      30.19F
HAILEY         CLEAR     57  39  51 NW9       30.25R
STANLEY          N/A     51  32  48 S6        30.31R
SALMON         CLEAR     56  39  53 CALM      30.16R
CHALLIS        CLEAR     61  36  39 S3        30.20R
$$

IDZ002-004-006-007-026-220700-
NORTHERN IDAHO


CITY           SKY/WX    TMP DP  RH WIND       PRES   REMARKS
LEWISTON       CLEAR     74  38  27 S8        30.01S
LOWELL           N/A     61  50  67 VRB3      30.08R
COEUR D`ALENE  CLEAR     60  47  61 CALM      30.09R
MULLAN PASS    CLEAR     61  35  37 CALM      30.28S
$$




USA.gov is the U.S. government's official web portal to all federal, state and local government web resources and services.